1998-067PK (43598 NORAD) Tracking and Keplerian Element Data

This shows tracking and keplerian element data for the satellite.

Feedback or suggestion? Click here.




ElementValue
Catalog43598
Name1998-067PK
Epoch Orbit3894
Epoch Day112.65367486
Epoch Year2019
RAAN270.3529
Inclination51.6372
Eccentricity0.0003999
Argument of Perigee265.8088
Mean Anonmoly94.2449
Mean Motion15.60757274
Decay Rate0.00016653
L11 43598U 98067PK 19112.65367486 .00016653 00000-0 20195-3 0 9999
L22 43598 51.6372 270.3529 0003999 265.8088 94.2449 15.60757274 38940

Live tracking and technical data element details for 1998-067PK (NORAD 43598). 1998-067PK can be tracked NOW for your location showing map with azimuth and elevation plus other details from your city location.

Track the satellite on the map from your city or location and see movement details for azimuth, elevation, latitude, longitude, range, height, and movement on the map or in text.







IsCatalogInMostPopularTable: catalog: 43598, numindb: 126
Update: records affected: 1



GetName: 43598 1998-067PK

Hit Count: updated at: Tue, 23 Apr 2019 19:51:14 GMT